Location: Unspecified
(42.0334°N, 93.6656°W)
Time: 07:33:10
(UTC-05:00)

Amateur Radio Satellites - All Passes

Search period start: 02 July 2015 07:03
Search period end: 03 July 2015 07:03
Location: Unspecified, 42.0334°N, 93.6656°W

Satellite Date Start Highest point End Downlink Frequencies (MHz)
Time Altitude Azimuth
PRISM 02 Jul 07:14:22 07:18:29 66° 74° (ENE) 07:22:39 437.425
STRAND 1 02 Jul 07:17:32 07:22:38 75° 75° (ENE) 07:27:49 437.568
CUBESAT XI-V 02 Jul 07:28:09 07:32:21 31° 265° (W) 07:36:34 437.345
AUBIESAT-1 02 Jul 07:59:36 08:02:00 19° 63° (ENE) 08:04:32 437.475
CUSAT 1 02 Jul 08:00:28 08:06:18 32° 95° (E) 08:11:06 437.405
Cosmos 2504 02 Jul 08:00:54 08:07:27 35° 289° (WNW) 08:13:51 435.465 / 435.565
RS-15 02 Jul 08:04:09 08:12:29 22° 359° (N) 08:21:04 29.354- 29.394
CUTE-I 02 Jul 08:07:52 08:13:11 60° 288° (WNW) 08:18:26 437.470
O/OREOS (USA 219) 02 Jul 08:30:06 08:34:31 67° 110° (ESE) 08:38:58 437.305
M-CUBED/EXP-1 PRIME 02 Jul 08:30:25 08:33:38 56° 70° (ENE) 08:36:58 437.505
BEESAT 3 02 Jul 08:31:21 08:35:23 70° 121° (ESE) 08:39:29 437.485
GONETS M04 02 Jul 08:32:08 08:38:10 22° 81° (E) 08:44:34
ISS 02 Jul 08:34:23 08:35:57 13° 132° (SE) 08:37:37 145.825
GOMX 1 02 Jul 08:37:43 08:40:32 18° 91° (E) 08:43:25 467.674
BEESAT 2 02 Jul 08:39:48 08:43:52 67° 120° (ESE) 08:47:59 435.950
Cubesat XI-IV 02 Jul 08:41:43 08:46:26 31° 293° (WNW) 08:51:03 437.490
DANDE 02 Jul 08:44:29 08:51:54 58° 97° (E) 08:57:43 436.750
BRITE-PL 02 Jul 08:48:10 08:52:18 40° 97° (E) 08:56:16 437.365/2234.400
PRISM 02 Jul 08:53:30 08:54:27 10° 272° (W) 08:55:09 437.425
STRAND 1 02 Jul 08:59:58 09:02:31 13° 272° (W) 09:04:46 437.568
AAUSAT CUBESAT 2 02 Jul 09:05:03 09:05:35 10° 87° (E) 09:06:22 437.432
VERMONT LUNAR 02 Jul 09:11:43 09:14:19 24° 157° (SSE) 09:16:56 437.305
COMPASS 1 02 Jul 09:26:32 09:29:50 22° 93° (E) 09:33:12 437.405
CUTE 1.7 + AOD 2 02 Jul 09:27:43 09:31:40 35° 97° (E) 09:35:38 437.475
CANX-2 02 Jul 09:30:34 09:34:39 42° 98° (E) 09:38:45 2200.000
DOVE 4 02 Jul 09:33:31 09:37:31 44° 98° (E) 09:41:30 437.250
AUBIESAT-1 02 Jul 09:33:59 09:36:42 23° 260° (W) 09:39:26 437.475
ANTELSAT 02 Jul 09:36:54 09:38:03 11° 63° (ENE) 09:39:25 437.575/2403.000
AIST 2 02 Jul 09:41:09 09:45:24 75° 121° (ESE) 09:49:41 435.215
CUSAT 1 02 Jul 09:42:38 09:48:53 38° 284° (WNW) 09:53:44 437.405
TIGRISAT 02 Jul 09:49:11 09:51:29 15° 65° (ENE) 09:53:56 435.000
HO-68 02 Jul 09:53:50 10:00:58 67° 103° (ESE) 10:08:05 435.675
CUBEBUG 2 02 Jul 10:06:57 10:10:14 22° 94° (E) 10:13:39 437.445
ISS 02 Jul 10:08:45 10:11:59 73° 326° (NW) 10:15:14 145.825
QB50P1 02 Jul 10:10:29 10:11:19 11° 63° (ENE) 10:12:24 145.935-145.965
BEESAT 3 02 Jul 10:11:17 10:13:50 15° 320° (NW) 10:16:17 437.485
O/OREOS (USA 219) 02 Jul 10:12:00 10:14:30 14° 310° (NW) 10:16:50 437.305
GOMX 1 02 Jul 10:14:59 10:18:56 37° 289° (WNW) 10:22:44 467.674
RS-15 02 Jul 10:19:19 10:29:34 36° 32° (NNE) 10:40:24 29.354- 29.394
BEESAT 2 02 Jul 10:19:44 10:22:24 16° 320° (NW) 10:24:57 435.950
SEEDS 02 Jul 10:19:58 10:24:13 72° 284° (WNW) 10:28:28 437.485
ZACube-1 02 Jul 10:20:34 10:23:37 20° 93° (E) 10:26:48 437.345
NANOSAT C BR1 02 Jul 10:24:06 10:26:26 15° 65° (ENE) 10:28:56 145.865
GONETS M04 02 Jul 10:25:20 10:34:10 78° 280° (W) 10:42:57
UNISAT 6 02 Jul 10:25:58 10:29:54 36° 71° (ENE) 10:33:50 437.425
BRITE-PL 02 Jul 10:27:31 10:30:34 18° 295° (WNW) 10:33:24 437.365/2234.400
Cosmos 2499 02 Jul 10:28:45 10:33:37 21° 83° (E) 10:38:46 435.465 / 435.565
DANDE 02 Jul 10:29:16 10:35:13 26° 289° (WNW) 10:39:59 436.750
PHONESAT 2.4 02 Jul 10:29:59 10:32:42 22° 154° (SSE) 10:35:27 2401.200-2431.200
DUCHIFAT 1 02 Jul 10:31:29 10:34:14 17° 66° (ENE) 10:37:06 145.980
POLYITAN 1 02 Jul 10:33:04 10:36:01 19° 67° (ENE) 10:39:04 437.675
Oscar 11 02 Jul 10:34:23 10:38:36 48° 99° (E) 10:42:49 145.826/435.025
AAUSAT CUBESAT 2 02 Jul 10:37:31 10:41:43 67° 285° (WNW) 10:45:53 437.432
CINEMA 3 02 Jul 10:37:46 10:41:56 76° 284° (WNW) 10:46:08 145.822/145.860
VERMONT LUNAR 02 Jul 10:47:51 10:50:58 60° 173° (S) 10:54:05 437.305
FUNcube-1 02 Jul 10:57:07 11:01:11 48° 99° (E) 11:05:20 145.935
BUGSAT 1 02 Jul 10:59:04 11:02:22 23° 68° (ENE) 11:05:44 437.445
HUMSAT D 02 Jul 10:59:59 11:03:16 23° 94° (E) 11:06:38 437.325/437.525
COMPASS 1 02 Jul 11:01:47 11:05:33 31° 290° (WNW) 11:09:16 437.405
QB50P2 02 Jul 11:02:03 11:05:58 38° 72° (ENE) 11:09:57 145.880/145.840
UWE-3 02 Jul 11:02:44 11:06:57 76° 102° (ESE) 11:11:13 435.000/436.395/437.385
POPSAT HIP 1 02 Jul 11:03:26 11:07:22 38° 71° (ENE) 11:11:20 437.405
CUTE 1.7 + AOD 2 02 Jul 11:04:08 11:07:22 21° 292° (WNW) 11:10:32 437.475
CANX-2 02 Jul 11:07:21 11:10:18 18° 293° (WNW) 11:13:07 2200.000
ANTELSAT 02 Jul 11:10:02 11:14:20 73° 258° (WSW) 11:18:36 437.575/2403.000
DELFI C3 02 Jul 11:10:24 11:14:30 89° 96° (E) 11:18:35 145.870
DOVE 4 02 Jul 11:12:25 11:14:59 16° 295° (WNW) 11:17:23 437.250
AIST 2 02 Jul 11:21:50 11:24:31 16° 321° (NW) 11:27:06 435.215
TIGRISAT 02 Jul 11:23:39 11:27:52 53° 260° (W) 11:32:03 435.000
VELOX 1 02 Jul 11:24:17 11:27:24 19° 92° (E) 11:30:37 145.980
50 SAT 02 Jul 11:31:25 11:34:38 25° 95° (E) 11:37:55 437.505
QB50P1 02 Jul 11:42:23 11:46:39 77° 258° (WSW) 11:50:54 145.935-145.965
DX 1 02 Jul 11:42:25 11:46:42 54° 101° (E) 11:50:58 434.975-435.025
HO-68 02 Jul 11:42:29 11:48:12 26° 301° (WNW) 11:53:44 435.675
CUBEBUG 2 02 Jul 11:43:18 11:46:59 30° 289° (WNW) 11:50:41 437.445
ISS 02 Jul 11:46:23 11:48:50 19° 346° (NNW) 11:51:16 145.825
ZACube-1 02 Jul 11:56:16 12:00:07 35° 288° (WNW) 12:03:58 437.345
NANOSAT C BR1 02 Jul 11:57:45 12:01:54 51° 260° (W) 12:06:03 145.865
UNISAT 6 02 Jul 12:03:38 12:06:50 20° 268° (W) 12:09:55 437.425
DUCHIFAT 1 02 Jul 12:05:42 12:09:45 43° 261° (W) 12:13:48 145.980
PHONESAT 2.4 02 Jul 12:06:59 12:10:23 58° 171° (S) 12:13:48 2401.200-2431.200
UKube-1 02 Jul 12:07:06 12:11:28 86° 281° (W) 12:15:46 .
POLYITAN 1 02 Jul 12:07:40 12:11:41 39° 262° (W) 12:15:39 437.675
AISAT 02 Jul 12:09:40 12:14:03 61° 101° (E) 12:18:24 437.250
Oscar 19 02 Jul 12:11:35 12:12:21 10° 58° (ENE) 12:13:25 437.125/150
Oscar 11 02 Jul 12:11:38 12:14:26 17° 294° (WNW) 12:17:05 145.826/435.025
Cosmos 2499 02 Jul 12:19:08 12:26:09 64° 282° (WNW) 12:33:14 435.465 / 435.565
VERMONT LUNAR 02 Jul 12:24:41 12:27:48 56° 189° (S) 12:30:55 437.305
GONETS M04 02 Jul 12:27:23 12:32:49 17° 303° (WNW) 12:37:45
RS-15 02 Jul 12:31:52 12:43:39 87° 238° (WSW) 12:55:51 29.354- 29.394
ESTCUBE 1 02 Jul 12:32:45 12:37:19 70° 102° (ESE) 12:41:49 437.505/2401.250
BUGSAT 1 02 Jul 12:33:53 12:37:42 31° 264° (W) 12:41:28 437.445
FUNcube-1 02 Jul 12:34:40 12:37:12 15° 294° (WNW) 12:39:37 145.935
CUBEBUG 1 02 Jul 12:35:23 12:39:44 63° 101° (E) 12:44:02 437.445
HUMSAT D 02 Jul 12:35:23 12:39:02 30° 290° (WNW) 12:42:39 437.325/437.525
QB50P2 02 Jul 12:39:00 12:42:03 18° 268° (W) 12:44:59 145.880/145.840
POPSAT HIP 1 02 Jul 12:40:22 12:43:25 18° 268° (W) 12:46:20 437.405
UWE-3 02 Jul 12:42:13 12:42:58 10° 297° (WNW) 12:43:30 435.000/436.395/437.385
VELOX 1 02 Jul 13:00:00 13:04:10 40° 289° (WNW) 13:08:15 145.980
TISAT 1 02 Jul 13:02:45 13:06:03 23° 94° (E) 13:09:26 437.305
50 SAT 02 Jul 13:06:00 13:09:12 24° 291° (WNW) 13:12:21 437.505
DX 1 02 Jul 13:19:59 13:22:33 15° 296° (WNW) 13:24:56 434.975-435.025
ISS 02 Jul 13:24:03 13:26:07 16° 6° (N) 13:28:11 145.825
Gurwin Techsat 1B 02 Jul 13:33:59 13:37:35 19° 63° (ENE) 13:41:21 435.225
PHONESAT 2.4 02 Jul 13:44:52 13:48:18 63° 188° (S) 13:51:45 2401.200-2431.200
Oscar 19 02 Jul 13:45:49 13:50:56 77° 75° (ENE) 13:56:06 437.125/150
SPROUT 02 Jul 13:46:40 13:50:57 73° 285° (WNW) 13:55:12 437.525
AISAT 02 Jul 13:47:49 13:50:10 14° 297° (WNW) 13:52:20 437.250
ITAMSAT 1 02 Jul 13:53:05 13:57:21 27° 66° (ENE) 14:01:45 435.822/435.867
BEESAT 02 Jul 13:58:05 14:00:58 16° 90° (E) 14:04:02 436.000
VERMONT LUNAR 02 Jul 14:01:57 14:04:25 21° 205° (SSW) 14:06:52 437.305
YUBILEINY 02 Jul 14:03:35 14:10:43 28° 65° (ENE) 14:18:05 435.215
AO-7 02 Jul 14:06:47 14:11:24 17° 48° (NE) 14:16:25 29.400- 29.500
ESTCUBE 1 02 Jul 14:11:28 14:13:39 13° 297° (WNW) 14:15:39 437.505/2401.250
SWISSCUBE 02 Jul 14:12:33 14:16:27 25° 94° (E) 14:20:25 437.505
CUBEBUG 1 02 Jul 14:13:25 14:15:37 13° 297° (WNW) 14:17:37 437.445
ITUPSAT 1 02 Jul 14:16:42 14:20:36 24° 94° (E) 14:24:34 437.325
Cosmos 2499 02 Jul 14:20:25 14:21:11 10° 306° (NW) 14:21:26 435.465 / 435.565
Cosmos 2491 02 Jul 14:27:38 14:32:31 17° 78° (ENE) 14:37:57 435.465 / 435.565
TISAT 1 02 Jul 14:38:11 14:41:52 30° 290° (WNW) 14:45:30 437.305
JAS-2 02 Jul 14:44:23 14:48:04 21° 63° (ENE) 14:52:00 435.910
RS-15 02 Jul 14:46:08 14:54:50 23° 257° (WSW) 15:03:03 29.354- 29.394
ISS 02 Jul 15:00:12 15:03:12 34° 25° (NNE) 15:06:14 145.825
Gurwin Techsat 1B 02 Jul 15:11:54 15:17:09 60° 259° (W) 15:22:25 435.225
PHONESAT 2.4 02 Jul 15:23:03 15:26:03 27° 203° (SSW) 15:29:04 2401.200-2431.200
Oscar 19 02 Jul 15:28:38 15:30:59 13° 273° (W) 15:33:03 437.125/150
ITAMSAT 1 02 Jul 15:31:49 15:36:42 39° 263° (W) 15:41:36 435.822/435.867
BEESAT 02 Jul 15:34:31 15:39:14 55° 287° (WNW) 15:43:54 436.000
AIST 1 02 Jul 15:40:15 15:43:27 21° 88° (E) 15:46:47
HORYU 2 02 Jul 15:47:42 15:51:54 46° 72° (ENE) 15:56:10 437.375
KKS-1 02 Jul 15:48:37 15:52:44 37° 97° (E) 15:56:52 437.445
SWISSCUBE 02 Jul 15:50:00 15:54:25 36° 290° (WNW) 15:58:46 437.505
ITUPSAT 1 02 Jul 15:54:10 15:58:36 37° 290° (WNW) 16:02:58 437.325
AO-7 02 Jul 15:54:37 16:02:52 69° 68° (ENE) 16:11:11 29.400- 29.500
Cosmos 2504 02 Jul 15:59:09 16:03:11 15° 60° (ENE) 16:07:49 435.465 / 435.565
YUBILEINY 02 Jul 15:59:40 16:08:20 67° 267° (W) 16:16:59 435.215
Cosmos 2491 02 Jul 16:19:24 16:28:15 86° 97° (E) 16:37:07 435.465 / 435.565
PCSat 02 Jul 16:20:49 16:25:50 41° 112° (ESE) 16:30:56 145.827
JAS-2 02 Jul 16:27:52 16:32:53 49° 261° (W) 16:38:02 435.910
ISS 02 Jul 16:36:39 16:39:35 31° 223° (SW) 16:42:30 145.825
STARS 02 Jul 16:46:08 16:50:32 85° 285° (WNW) 16:54:54 437.465
BEESAT 3 02 Jul 16:49:37 16:53:33 46° 52° (NE) 16:57:26 437.485
SO-50 02 Jul 16:50:59 16:53:48 16° 110° (ESE) 16:56:53 436.795
BEESAT 2 02 Jul 16:58:37 17:02:34 46° 52° (NE) 17:06:29 435.950
O/OREOS (USA 219) 02 Jul 17:01:27 17:04:14 16° 52° (NE) 17:07:10 437.305
AIST 1 02 Jul 17:16:53 17:20:54 34° 285° (WNW) 17:24:56
KKS-1 02 Jul 17:25:46 17:29:11 21° 293° (WNW) 17:32:28 437.445
HORYU 2 02 Jul 17:25:56 17:28:51 17° 269° (W) 17:31:36 437.375
MOZHAYETS 4 02 Jul 17:26:11 17:30:38 44° 98° (E) 17:35:05
AO-7 02 Jul 17:49:29 17:56:23 27° 268° (W) 18:03:03 29.400- 29.500
Cosmos 2504 02 Jul 17:50:16 17:57:57 80° 81° (E) 18:06:14 435.465 / 435.565
CUTE-I 02 Jul 17:51:00 17:55:38 31° 67° (ENE) 18:00:22 437.470
YUBILEINY 02 Jul 18:00:45 18:03:39 11° 285° (WNW) 18:05:50 435.215
AIST 2 02 Jul 18:02:37 18:06:45 54° 53° (NE) 18:10:49 435.215
PCSat 02 Jul 18:04:33 18:09:23 31° 311° (NW) 18:14:11 145.827
Cosmos 2491 02 Jul 18:20:00 18:26:30 21° 299° (WNW) 18:32:37 435.465 / 435.565
Cubesat XI-IV 02 Jul 18:23:46 18:29:02 61° 73° (ENE) 18:34:22 437.490
BEESAT 3 02 Jul 18:28:34 18:31:10 16° 249° (WSW) 18:33:37 437.485
SO-50 02 Jul 18:29:10 18:33:52 63° 307° (NW) 18:38:45 436.795
BEESAT 2 02 Jul 18:37:37 18:40:19 17° 248° (WSW) 18:42:51 435.950
O/OREOS (USA 219) 02 Jul 18:39:39 18:44:06 59° 251° (WSW) 18:48:34 437.305
HO-68 02 Jul 18:42:15 18:43:07 10° 48° (NE) 18:44:25 435.675
GONETS M04 02 Jul 18:43:34 18:44:12 10° 50° (NE) 18:45:32
MOZHAYETS 4 02 Jul 19:04:08 19:07:35 20° 294° (WNW) 19:10:54
CUBESAT XI-V 02 Jul 19:23:47 19:28:28 63° 101° (E) 19:33:05 437.345
DANDE 02 Jul 19:27:50 19:30:06 20° 70° (ENE) 19:32:12 436.750
STRAND 1 02 Jul 19:28:19 19:32:26 24° 93° (E) 19:36:37 437.568
CUTE-I 02 Jul 19:30:45 19:35:40 35° 264° (W) 19:40:33 437.470
AIST 2 02 Jul 19:42:28 19:44:55 15° 249° (WSW) 19:47:11 435.215
Cosmos 2504 02 Jul 19:45:22 19:50:41 20° 277° (W) 19:55:49 435.465 / 435.565
GOMX 1 02 Jul 19:45:26 19:49:36 26° 69° (ENE) 19:53:41 467.674
BRITE-PL 02 Jul 19:58:05 20:03:28 55° 74° (ENE) 20:08:34 437.365/2234.400
Cubesat XI-IV 02 Jul 20:05:59 20:09:38 18° 270° (W) 20:13:05 437.490
CINEMA 3 02 Jul 20:06:28 20:07:25 11° 63° (ENE) 20:08:36 145.822/145.860
SO-50 02 Jul 20:13:08 20:15:29 13° 328° (NNW) 20:17:43 436.795
COMPASS 1 02 Jul 20:18:54 20:21:31 17° 66° (ENE) 20:24:17 437.405
CUSAT 1 02 Jul 20:20:48 20:23:08 25° 266° (W) 20:25:20 437.405
CUTE 1.7 + AOD 2 02 Jul 20:21:14 20:24:45 27° 70° (ENE) 20:28:22 437.475
HO-68 02 Jul 20:22:34 20:29:24 52° 67° (ENE) 20:36:18 435.675
CANX-2 02 Jul 20:24:03 20:27:46 32° 71° (ENE) 20:31:34 2200.000
PRISM 02 Jul 20:31:27 20:35:41 79° 285° (WNW) 20:39:51 437.425
GONETS M04 02 Jul 20:35:14 20:43:43 55° 75° (ENE) 20:52:12
DOVE 4 02 Jul 20:38:53 20:43:39 52° 73° (ENE) 20:48:11 437.250
CUBESAT XI-V 02 Jul 21:02:42 21:05:26 15° 296° (WNW) 21:07:58 437.345
CUBEBUG 2 02 Jul 21:06:04 21:09:15 21° 68° (ENE) 21:12:30 437.445
STRAND 1 02 Jul 21:06:58 21:11:49 41° 290° (WNW) 21:16:36 437.568
SEEDS 02 Jul 21:12:05 21:16:16 82° 74° (ENE) 21:20:28 437.485
AUBIESAT-1 02 Jul 21:12:48 21:15:44 19° 98° (E) 21:18:55 437.475
ZACube-1 02 Jul 21:17:40 21:20:23 17° 67° (ENE) 21:23:12 437.345
GOMX 1 02 Jul 21:22:43 21:27:36 38° 263° (W) 21:32:11 467.674
AAUSAT CUBESAT 2 02 Jul 21:28:18 21:32:26 84° 77° (ENE) 21:36:37 437.432
Oscar 11 02 Jul 21:29:32 21:33:31 39° 72° (ENE) 21:37:33 145.826/435.025
BRITE-PL 02 Jul 21:38:14 21:42:17 20° 269° (W) 21:46:01 437.365/2234.400
CINEMA 3 02 Jul 21:39:34 21:44:09 80° 258° (WSW) 21:48:32 145.822/145.860
M-CUBED/EXP-1 PRIME 02 Jul 21:44:16 21:48:17 46° 105° (ESE) 21:52:37 437.505
HUMSAT D 02 Jul 21:52:52 21:55:34 18° 67° (ENE) 21:58:24 437.325/437.525
COMPASS 1 02 Jul 21:52:57 21:56:53 42° 262° (W) 22:00:52 437.405
FUNcube-1 02 Jul 21:53:22 21:57:17 39° 72° (ENE) 22:01:12 145.935
CUTE 1.7 + AOD 2 02 Jul 21:57:07 22:00:39 25° 266° (W) 22:04:10 437.475
DELFI C3 02 Jul 21:57:47 22:01:42 55° 74° (ENE) 22:05:38 145.870
UWE-3 02 Jul 22:00:12 22:04:25 64° 75° (ENE) 22:08:35 435.000/436.395/437.385
CANX-2 02 Jul 22:00:29 22:03:47 21° 267° (W) 22:07:00 2200.000
Cosmos 2499 02 Jul 22:08:09 22:15:31 46° 74° (ENE) 22:23:29 435.465 / 435.565
HO-68 02 Jul 22:11:12 22:17:27 31° 266° (W) 22:23:35 435.675
50 SAT 02 Jul 22:16:57 22:19:12 16° 67° (ENE) 22:21:36 437.505
DOVE 4 02 Jul 22:18:24 22:21:42 17° 269° (W) 22:24:42 437.250
VELOX 1 02 Jul 22:22:32 22:25:40 20° 66° (ENE) 22:28:56 145.980
GONETS M04 02 Jul 22:32:42 22:40:14 33° 275° (W) 22:47:32
DX 1 02 Jul 22:38:12 22:42:26 50° 72° (ENE) 22:46:42 434.975-435.025
CUBEBUG 2 02 Jul 22:41:50 22:45:48 34° 263° (W) 22:49:39 437.445
AUBIESAT-1 02 Jul 22:46:39 22:50:36 43° 292° (WNW) 22:54:48 437.475
ZACube-1 02 Jul 22:52:27 22:56:29 42° 262° (W) 23:00:27 437.345
ANTELSAT 02 Jul 23:01:54 23:05:16 22° 93° (E) 23:08:45 437.575/2403.000
UKube-1 02 Jul 23:01:58 23:06:20 84° 73° (ENE) 23:10:42 .
Oscar 11 02 Jul 23:06:49 23:09:53 18° 268° (W) 23:12:51 145.826/435.025
AISAT 02 Jul 23:07:33 23:11:56 58° 73° (ENE) 23:16:20 437.250
TIGRISAT 02 Jul 23:14:51 23:18:37 28° 96° (E) 23:22:29 435.000
M-CUBED/EXP-1 PRIME 02 Jul 23:19:57 23:22:52 18° 298° (WNW) 23:25:48 437.505
HUMSAT D 02 Jul 23:27:12 23:31:04 39° 262° (W) 23:34:55 437.325/437.525
QB50P1 02 Jul 23:28:14 23:30:51 16° 91° (E) 23:33:36 145.935-145.965
FUNcube-1 02 Jul 23:30:58 23:33:50 17° 269° (W) 23:36:32 145.935
CUBEBUG 1 02 Jul 23:31:35 23:35:55 55° 74° (ENE) 23:40:17 437.445
ESTCUBE 1 02 Jul 23:32:32 23:37:01 67° 74° (ENE) 23:41:33 437.505/2401.250
DELFI C3 02 Jul 23:35:43 23:37:12 11° 272° (W) 23:38:28 145.870
UWE-3 02 Jul 23:40:15 23:41:27 11° 272° (W) 23:42:23 435.000/436.395/437.385
NANOSAT C BR1 02 Jul 23:42:39 23:46:00 23° 94° (E) 23:49:25 145.865
50 SAT 02 Jul 23:49:57 23:53:33 38° 262° (W) 23:57:10 437.505
DUCHIFAT 1 02 Jul 23:50:06 23:53:41 27° 95° (E) 23:57:18 145.980
POLYITAN 1 02 Jul 23:52:35 23:56:19 31° 96° (E) 00:00:06 437.675
UNISAT 6 02 Jul 23:53:20 23:57:43 79° 102° (ESE) 00:02:10 437.425
TISAT 1 02 Jul 23:55:40 23:58:41 20° 67° (ENE) 00:01:47 437.305
VELOX 1 02 Jul 23:57:41 00:01:57 42° 262° (W) 00:06:13 145.980
Cosmos 2499 03 Jul 00:01:33 00:08:35 37° 272° (W) 00:15:58 435.465 / 435.565
BUGSAT 1 03 Jul 00:15:27 00:19:10 33° 97° (E) 00:22:51 437.445
DX 1 03 Jul 00:16:22 00:19:01 15° 270° (W) 00:21:30 434.975-435.025
QB50P2 03 Jul 00:22:18 00:26:31 69° 102° (ESE) 00:30:42 145.880/145.840
POPSAT HIP 1 03 Jul 00:23:31 00:27:43 69° 101° (ESE) 00:31:54 437.405
ANTELSAT 03 Jul 00:38:10 00:42:09 35° 289° (WNW) 00:46:10 437.575/2403.000
SPROUT 03 Jul 00:40:50 00:45:10 89° 72° (ENE) 00:49:30 437.525
AISAT 03 Jul 00:46:35 00:48:57 14° 271° (W) 00:51:05 437.250
TIGRISAT 03 Jul 00:51:38 00:55:19 26° 291° (WNW) 00:58:58 435.000
RS-15 03 Jul 00:54:44 00:55:55 10° 96° (E) 00:58:17 29.354- 29.394
QB50P1 03 Jul 01:02:58 01:06:58 42° 288° (WNW) 01:10:55 145.935-145.965
BEESAT 03 Jul 01:05:00 01:08:26 21° 65° (ENE) 01:12:01 436.000
PCSat 03 Jul 01:08:04 01:13:06 38° 51° (NE) 01:18:08 145.827
CUBEBUG 1 03 Jul 01:10:11 01:12:40 14° 271° (W) 01:14:58 437.445
ESTCUBE 1 03 Jul 01:12:32 01:14:26 12° 272° (W) 01:16:06 437.505/2401.250
NANOSAT C BR1 03 Jul 01:18:11 01:21:52 29° 290° (WNW) 01:25:29 145.865
SWISSCUBE 03 Jul 01:19:30 01:23:37 30° 68° (ENE) 01:27:50 437.505
SO-50 03 Jul 01:20:29 01:24:17 22° 40° (NE) 01:28:09 436.795
ITUPSAT 1 03 Jul 01:23:55 01:28:02 30° 68° (ENE) 01:32:15 437.325
DUCHIFAT 1 03 Jul 01:25:56 01:29:26 25° 291° (WNW) 01:32:50 145.980
POLYITAN 1 03 Jul 01:28:45 01:32:07 23° 292° (WNW) 01:35:22 437.675
TISAT 1 03 Jul 01:30:14 01:34:13 38° 262° (W) 01:38:11 437.305
UNISAT 6 03 Jul 01:32:43 01:33:59 11° 297° (WNW) 01:35:01 437.425
BUGSAT 1 03 Jul 01:51:26 01:54:26 20° 293° (WNW) 01:57:19 437.445
Oscar 19 03 Jul 01:57:30 02:01:42 26° 94° (E) 02:06:00 437.125/150
QB50P2 03 Jul 02:00:22 02:01:54 11° 297° (WNW) 02:03:13 145.880/145.840
POPSAT HIP 1 03 Jul 02:01:35 02:03:05 11° 297° (WNW) 02:04:24 437.405
Cosmos 2491 03 Jul 02:29:38 02:37:52 44° 72° (ENE) 02:46:07 435.465 / 435.565
BEESAT 03 Jul 02:41:24 02:45:59 45° 261° (W) 02:50:36 436.000
KKS-1 03 Jul 02:47:08 02:51:12 36° 71° (ENE) 02:55:19 437.445
PCSat 03 Jul 02:51:38 02:56:29 33° 249° (WSW) 03:01:13 145.827
RS-15 03 Jul 02:55:36 03:06:08 60° 115° (ESE) 03:17:04 29.354- 29.394
SWISSCUBE 03 Jul 02:57:16 03:01:27 30° 265° (W) 03:05:38 437.505
SO-50 03 Jul 03:00:23 03:05:19 64° 240° (WSW) 03:10:07 436.795
ITUPSAT 1 03 Jul 03:01:41 03:05:54 30° 265° (W) 03:10:05 437.325
YUBILEINY 03 Jul 03:05:49 03:12:55 31° 84° (E) 03:20:16 435.215
AIST 1 03 Jul 03:23:08 03:27:29 59° 79° (E) 03:31:45
Gurwin Techsat 1B 03 Jul 03:27:37 03:32:50 53° 100° (E) 03:38:02 435.225
JAS-2 03 Jul 03:34:58 03:39:58 23° 91° (E) 03:45:36 435.910
Oscar 19 03 Jul 03:36:26 03:41:12 39° 291° (WNW) 03:45:54 437.125/150
STARS 03 Jul 03:43:06 03:47:31 89° 77° (ENE) 03:51:57 437.465
ITAMSAT 1 03 Jul 03:43:46 03:49:00 72° 102° (ESE) 03:54:13 435.822/435.867
AO-7 03 Jul 03:57:09 04:02:51 21° 89° (E) 04:08:56 29.400- 29.500
KKS-1 03 Jul 04:24:30 04:27:58 21° 267° (W) 04:31:20 437.445
Cosmos 2491 03 Jul 04:26:41 04:34:44 41° 272° (W) 04:42:36 435.465 / 435.565
MOZHAYETS 4 03 Jul 04:28:28 04:32:45 43° 72° (ENE) 04:37:08
YUBILEINY 03 Jul 05:00:45 05:09:19 59° 284° (WNW) 05:17:52 435.215
AIST 1 03 Jul 05:02:58 05:04:38 12° 275° (W) 05:06:03
Gurwin Techsat 1B 03 Jul 05:08:29 05:12:28 21° 296° (WNW) 05:16:19 435.225
RS-15 03 Jul 05:08:37 05:19:03 45° 320° (NW) 05:29:47 29.354- 29.394
HORYU 2 03 Jul 05:14:38 05:19:07 89° 103° (ESE) 05:23:35 437.375
JAS-2 03 Jul 05:19:01 05:25:27 67° 287° (WNW) 05:32:40 435.910
ITAMSAT 1 03 Jul 05:24:47 05:27:59 16° 299° (WNW) 05:30:59 435.822/435.867
AO-7 03 Jul 05:48:19 05:56:44 84° 290° (WNW) 06:05:06 29.400- 29.500
MOZHAYETS 4 03 Jul 06:06:54 06:10:14 19° 269° (W) 06:13:26
CUTE-I 03 Jul 06:10:01 06:11:13 11° 86° (E) 06:12:48 437.470
CUBESAT XI-V 03 Jul 06:27:15 06:31:54 63° 74° (ENE) 06:36:35 437.345
Cosmos 2504 03 Jul 06:29:31 06:36:38 66° 94° (E) 06:43:44 435.465 / 435.565
Cubesat XI-IV 03 Jul 06:41:20 06:45:30 23° 92° (E) 06:49:48 437.490
STRAND 1 03 Jul 06:44:24 06:49:04 37° 69° (ENE) 06:53:49 437.568
